Tracking 29892 objects as of 21-Nov-2024
HD Live streaming from Space Station
objects crossing your sky now

STARLINK-31661

Track STARLINK-31661 now!
10-day predictions
STARLINK-31661 is classified as:


NORAD ID: 59735
Int'l Code: 2024-090F
Perigee: 450.1 km
Apogee: 452.2 km
Inclination: 43.0 °
Period: 93.5 minutes
Semi major axis: 6822 km
RCS: Unknown
Launch date: May 13, 2024
Source: United States (US)
Launch site: AIR FORCE EASTERN TEST RANGE (AFETR)
Your satellite tracking list
Your tracking list is empty




NASA's NSSDC Master Catalog

Two Line Element Set (TLE):
1 59735U 24090F   24325.55090433  .00000507  00000-0  19388-4 0  9994
2 59735  43.0030 351.8500 0001500 251.8548 108.2145 15.40710013 30750
Source of the keplerian elements: AFSPC